Stampede Pass, WA
on Tuesday, December 18, 2012

Tuesday
Previous Day Next Day
Daily Summary
 ActualAverage (KEAT)Record (KEAT)
Temperature
Mean Temperature °F 25°F  
Max Temperature 21°F 31°F 52°F (1976)
Min Temperature 21°F 19°F -3°F (1964)
Degree Days
Heating Degree Days 44 40  
Month to date heating degree days 697  
Since 1 July heating degree days 2579  
Cooling Degree Days 0 0  
Month to date cooling degree days 0  
Year to date cooling degree days 249  
Moisture
Dew Point 19°F   
Average Humidity 90    
Maximum Humidity 93    
Minimum Humidity 86    
Precipitation
Precipitation 0.12 in 0.08 in 0.28 in (1960)
Month to date precipitation 1.49  
Year to date precipitation 16.04  
Snow
Snow 0.00 in 0.60 in in ()
Month to date snowfall 9.0  
Since 1 July snowfall 16.9  
Snow Depth in   
Wind
Wind Speed 4 mph   
Max Wind Speed 8 mph   
Max Gust Speed 21 mph   
Visibility 3 miles   
Events Fog , Snow   

Key: T is trace of precipitation, MM is missing value
Source: NWS Daily Summary
Time(PST)TemperatureDew PointHumidity Pressure Visibility Wind DirectionWind SpeedGust SpeedPrecipitationEvents Conditions
12:56 AM 21.9°F 19.0°F 89% 29.84 in 0.2 miles Variable 3.5 mph - 0.05 in Fog , Snow Heavy Snow
1:29 AM 21.2°F 19.4°F 93% 29.73 in 0.8 miles Variable 6.9 mph - 0.02 in Snow Light Snow
2:26 AM 21.2°F 19.4°F 93% 29.74 in 2.0 miles Variable 4.6 mph - 0.00 in Snow Light Snow
2:35 AM 21.2°F 19.4°F 93% 29.74 in 1.5 miles Variable 4.6 mph - 0.00 in Snow Light Snow
2:42 AM 21.2°F 19.4°F 93% 29.74 in 0.8 miles Variable 3.5 mph - 0.00 in Snow Light Snow
3:10 AM 21.2°F 19.4°F 93% 29.73 in 0.8 miles Calm Calm - 0.01 in Snow Light Snow
4:56 AM 21.0°F 18.0°F 88% 29.84 in 2.0 miles Calm Calm - 0.03 in Snow Light Snow
5:05 AM 21.2°F 17.6°F 86% 29.73 in 1.2 miles Calm Calm - 0.00 in Snow Light Snow
6:56 AM 21.0°F 18.0°F 88% 29.85 in 0.2 miles Calm Calm - 0.04 in Fog , Snow Snow
8:52 AM 21.2°F 19.4°F 93% 29.76 in 0.8 miles Variable 3.5 mph - 0.02 in Snow Light Snow
11:46 AM 21.2°F 19.4°F 93% 29.78 in 0.8 miles Variable 4.6 mph - 0.03 in Snow Light Snow
12:09 PM 21.2°F 17.6°F 86% 29.78 in 1.0 miles West 8.1 mph - 0.00 in   Overcast
12:18 PM 21.2°F 19.4°F 93% 29.78 in 8.0 miles West 8.1 mph - 0.00 in   Overcast
12:46 PM 21.2°F 19.4°F 93% 29.78 in 5.0 miles West 8.1 mph 20.7 mph 0.00 in   Overcast
12:56 PM 21.9°F 19.0°F 89% 29.89 in 8.0 miles Variable 5.8 mph - 0.00 in   Overcast
2:22 PM 21.2°F 17.6°F 86% 29.78 in 1.8 miles Variable 6.9 mph 17.3 mph 0.00 in Snow Light Snow
4:56 PM 21.9°F 19.0°F 89% 29.92 in 1.0 miles Variable 3.5 mph - 0.00 in   Overcast
6:11 PM 21.2°F 17.6°F 86% 29.81 in 10.0 miles West 4.6 mph - N/A   Overcast
7:51 PM 21.2°F 17.6°F 86% 29.82 in 9.0 miles WNW 5.8 mph - N/A   Overcast
8:18 PM 21.2°F 17.6°F 86% 29.83 in 10.0 miles Variable 3.5 mph - N/A   Overcast
Moon Phase
Dec. 18 Dec. 20 Dec. 28 Jan. 04 Jan. 11
Sunrise:07:48 AM (PST) Moon Rise:11:08 AM (PST)12/18
Sunset:04:16 PM (PST) Moon Set:11:12 PM (PST)12/18

Copyright © 2014 The Weather Underground, Inc.